This is the latest recevied weather packets stored in our database for station/object KM4CNW. If no packets are shown the sender has not sent any weather packets the latest 10 day(s).
| Time | Temp. | Humidity | Pressure | Rain* | Wind** | Luminosity | Snow |
|---|---|---|---|---|---|---|---|
| 1777213633 | 17.78° C | 90% | 1008.5 hPa | 0 mm | - | 37 W/m² | - |
| 1777213329 | 17.78° C | 89% | 1008.4 hPa | 0 mm | - | 51 W/m² | - |
| 1777213026 | 17.78° C | 89% | 1008.1 hPa | 0 mm | - | 107 W/m² | - |
| 1777212724 | 17.78° C | 89% | 1008.3 hPa | 0 mm | - | 119 W/m² | - |
| 1777212423 | 17.78° C | 89% | 1008.2 hPa | 0 mm | - | 109 W/m² | - |
| 1777211815 | 17.78° C | 89% | 1008.3 hPa | 0 mm | - | 80 W/m² | - |
| 1777211513 | 17.78° C | 89% | 1008.1 hPa | 0 mm | - | 93 W/m² | - |
| 1777211209 | 17.78° C | 90% | 1008.2 hPa | 0 mm | - | 105 W/m² | - |
| 1777210604 | 17.22° C | 91% | 1007.8 hPa | 0 mm | - | 128 W/m² | - |
| 1777210302 | 17.22° C | 91% | 1007.8 hPa | 0 mm | - | 120 W/m² | - |
| 1777209998 | 17.22° C | 92% | 1007.6 hPa | 0 mm | - | 105 W/m² | - |
| 1777209698 | 17.22° C | 93% | 1007.6 hPa | 0 mm | - | 118 W/m² | - |
| 1777209395 | 17.22° C | 93% | 1007.7 hPa | 0 mm | - | 105 W/m² | - |
| 1777209091 | 17.22° C | 93% | 1007.4 hPa | 0 mm | - | 75 W/m² | - |
| 1777208787 | 17.22° C | 93% | 1007.4 hPa | 0 mm | - | 65 W/m² | - |
| 1777208181 | 17.22° C | 93% | 1007.5 hPa | 0 mm | - | 42 W/m² | - |
| 1777206966 | 17.22° C | 96% | 1007.4 hPa | 0 mm | - | 175 W/m² | - |
| 1777206662 | 16.67° C | 96% | 1007.2 hPa | 0 mm | - | 119 W/m² | - |
| 1777206053 | 16.11° C | 96% | 1007.3 hPa | 0 mm | - | 69 W/m² | - |
| 1777203019 | 16.11° C | 97% | 1006.8 hPa | 0 mm | - | 22 W/m² | - |
| 1777202414 | 16.11° C | 97% | 1006.4 hPa | 0 mm | - | 16 W/m² | - |
| 1777201805 | 15.56° C | 97% | 1006.2 hPa | 0 mm | - | 14 W/m² | - |
| 1777199681 | 16.11° C | 97% | 1005.9 hPa | 0 mm | - | 1 W/m² | - |
| 1777199377 | 16.11° C | 97% | 1005.8 hPa | 0 mm | - | 0 W/m² | - |
| 1777199076 | 15.56° C | 97% | 1005.7 hPa | 0 mm | - | 0 W/m² | - |
* Rain latest hour (hover to see other rain measurements)
** Current wind speed in m/s (hover to see current wind gust speed)